{"data":{"norad_id":58925,"intl_designator":"2024-024J","name":"2024-024J","alt_names":[],"object_type":"PAYLOAD","status":"ACTIVE","operator":null,"country":"PRC","launch_date":"2024-02-03","launch_site_code":"SCSLA","launch_vehicle":null,"mission":null,"orbit_class":"UNKNOWN","rcs_meters":null,"size_class":null,"mass_kg":null,"dimensions":null,"purposes":[],"wikipedia_slug":null,"has_3d_model":false,"image_url":null,"decayed_at":null,"tle_current":{"epoch":"2026-05-25T05:10:44.634432Z","epoch_age_seconds":50316,"freshness":"FRESH","line1":"1 58925U 24024J   26145.21579438  .00081287  00000+0  62922-3 0  9997","line2":"2 58925  97.3117 235.3514 0005156 170.3268 189.8096 15.71608335166098","mean_motion":15.71608335,"eccentricity":0.0005156,"inclination_deg":97.3117,"raan_deg":235.3514,"arg_perigee_deg":170.3268,"mean_anomaly_deg":189.8096,"bstar":0.00062922,"rev_number":16609,"period_min":91.625882093582,"perigee_km":350.82866659659,"apogee_km":357.77115553929,"semimajor_km":6732.4369110679,"source":"CELESTRAK","updated_at":"2026-05-25T13:38:01.079826Z"}}}